Regional Weather Roundup
Issued by NWS

Home | Current Version | Previous Version | Text Only | Print | Product List | Glossary Off
Versions: 1 2 3 4 5 6 7 8 9 10 11 12 13 14 15 16 17 18 19 20 21 22 23 24 25 26 27 28 29 30 31 32 33 34 35 36 37 38 39 40 41 42 43 44 45 46 47 48 49 50

000
ASUS45 KABQ 042110
RWRNM
NEW MEXICO REGIONAL WEATHER ROUNDUP
NATIONAL WEATHER SERVICE ALBUQUERQUE NM
200 PM MST SUN DEC 04 2016

NOTE: "FAIR" MEANS FEW OR NO CLOUDS BELOW 12,000 FEET AGL WITH NO
       SIGNIFICANT WEATHER OR OBSTRUCTIONS TO VISION.

      THIS PRODUCT IS RELEASED AS TWO VERSIONS.  ONE VERSION NEAR
      THE TOP OF THE HOUR CONTAINING PRELIMINARY DATA FROM ALBUQUERQUE
      AND OTHER STATIONS.  A FINAL VERSION WITH ADDITIONAL DATA IS
      ISSUED ABOUT 10 MINUTES AFTER THE HOUR.

NMZ501-503-504-510>518-042200-
NORTHWEST PLATEAU/NORTHCENTRAL MOUNTAINS

CITY           SKY/WX    TMP DP  RH WIND       PRES   REMARKS
FARMINGTON     FAIR      39  18  42 W3        30.10F
LOS ALAMOS     FAIR      39  14  35 CALM      30.09F
SANTA FE       FAIR      45  10  24 N13       30.06F
TAOS           FAIR      36   9  32 W3        30.08F
ANGEL FIRE     FAIR      41  12  30 SW9       30.05F

$$
NMZ402-403-502-505>509-042200-
WESTCENTRAL MOUNTAINS/SOUTHWEST MOUNTAINS

CITY           SKY/WX    TMP DP  RH WIND       PRES   REMARKS
GALLUP         FAIR      43  10  26 SW6       30.12F
GRANTS         FAIR      45   8  22 N10G17    30.12F

$$
NMZ407-409-411-412-042200-
SOUTHERN DESERTS

CITY           SKY/WX    TMP DP  RH WIND       PRES   REMARKS
DEMING         FAIR      55  23  28 E10       30.05F
LAS CRUCES     FAIR      54  18  24 CALM      30.06F
HOLLOMAN AFB   FAIR      54  26  34 S10       30.07F
T OR C         FAIR      53  13  20 N7        30.05F

$$
NMZ519>523-042200-
CENTRAL VALLEYS/CENTRAL HIGHLANDS

CITY           SKY/WX    TMP DP  RH WIND       PRES   REMARKS
ALBUQUERQUE    FAIR      45  12  26 CALM      30.10F
DOUBLE EAGLE   SUNNY     46  16  29 W6        30.10F
MORIARTY ARPT  FAIR      49   6  17 NW10G17   30.07F
CLINES CORNERS FAIR      44   7  21 NW20      30.05F
BELEN          FAIR      46  12  25 NW6       30.11F
SOCORRO        FAIR      49  13  23 N14       30.08F

$$
NMZ524>526-539-540-042200-
SOUTHCENTRAL MOUNTAINS

CITY           SKY/WX    TMP DP  RH WIND       PRES   REMARKS
RUIDOSO        FAIR      43  19  39 SE8       30.09F

$$
NMZ527>531-042200-
NORTHEAST HIGHLANDS/NORTHEAST PLAINS

CITY           SKY/WX    TMP DP  RH WIND       PRES   REMARKS
LAS VEGAS      FAIR      46  16  30 S15       30.02F
RATON          FAIR      42  16  34 CALM      30.00F
CLAYTON        FAIR      48  22  35 SW17G23   30.00F

$$
NMZ532>537-042200-
EASTCENTRAL PLAINS

CITY           SKY/WX    TMP DP  RH WIND       PRES   REMARKS
TUCUMCARI      FAIR      49  19  30 S8        30.05F
CANNON AFB     FAIR      49  25  39 CALM      30.07F
CLOVIS AIRPORT FAIR      48  23  37 S3        30.07F

$$
NMZ028-029-538-042200-
SOUTHEAST PLAINS

CITY           SKY/WX    TMP DP  RH WIND       PRES   REMARKS
ROSWELL        FAIR      50  31  48 E5        30.07F
ARTESIA        FAIR      43  37  81 NE7       30.10F
CARLSBAD       CLOUDY    43  37  79 N9        30.09F
HOBBS            N/A     48  36  61 NE7       30.08F


$$



USA.gov is the U.S. government's official web portal to all federal, state and local government web resources and services.